Home   Weather   Bristol   Past weeks

Flag for United Kingdom Past Weather in Bristol, England, United Kingdom — Yesterday and Last 2 Weeks

48 °F


Feels Like: 42 °F
Forecast: 47 / 52 °F
Wind: 17 mph from Northeast

Location: Bristol / Lulsgate

Current Time: Oct 23, 2016 at 7:05:15 PM

Latest Report: Oct 23, 2016 at 6:20 PM

Visibility: N/A

Pressure: 29.77 "Hg

Humidity: 76%

Dew Point: 41 °F

Location of BristolLocation

Past Weather in Bristol — Graph


Bristol Temperature Yesterday

Maximum temperature yesterday: 50 °F (at 3:50 PM)
Minimum temperature yesterday: 41 °F (at 12:20 AM)
Average temperature yesterday: 44 °F

High & Low Weather Summary for the Past Weeks

High61 °F (Oct 16, 2:20 PM)100% (Oct 10, 8:20 AM)30.42 "Hg (Oct 10, 8:20 AM)
Low39 °F (Oct 11, 2:20 AM)59% (Oct 11, 3:50 PM)29.59 "Hg (Oct 15, 3:50 AM)
Average49 °F86%30.05 "Hg
* Reported Oct 8 5:20 PM — Oct 23 5:50 PM, Bristol, Weather by CustomWeather, © 2016

Note: Actual official high and low records may vary slightly from our data, if they occured in-between our weather recording intervals... More about our weather records


Bristol Weather History for the Previous 24 Hours

Scroll right to see more
Time TempWeatherWind HumidityBarometerVisibility
5:50 PM
Sun, Oct 23
50 °FCool.17 mph71%29.77 "HgN/A
5:20 PM50 °FCool.20 mph71%29.77 "HgN/A
4:50 PM50 °FPassing clouds.18 mph71%29.77 "HgN/A
4:20 PM50 °FPartly sunny.20 mph71%29.77 "HgN/A
3:50 PM50 °FPartly sunny.16 mph71%29.80 "HgN/A
3:20 PM52 °FPassing clouds.22 mph67%29.77 "HgN/A
2:50 PM52 °FPartly sunny.20 mph72%29.77 "HgN/A
2:20 PM52 °FScattered clouds.20 mph72%29.80 "HgN/A
1:50 PM50 °FScattered clouds.21 mph82%29.80 "HgN/A
1:20 PM50 °FScattered clouds.18 mph82%29.83 "HgN/A
12:50 PM48 °FPartly sunny.17 mph87%29.83 "Hg6 mi
12:20 PM46 °FPartly sunny.20 mph93%29.83 "Hg4 mi
11:50 AM45 °FPartly sunny.18 mph100%29.83 "Hg4 mi
11:20 AM45 °FBroken clouds.17 mph100%29.86 "Hg4 mi
10:50 AM45 °FFog.15 mph100%29.86 "Hg2 mi
10:20 AM45 °FFog.13 mph100%29.86 "Hg1 mi
9:50 AM45 °FFog.14 mph93%29.86 "Hg0 mi
9:20 AM43 °FFog.14 mph100%29.86 "Hg0 mi
8:50 AM43 °FFog.14 mph100%29.86 "Hg0 mi
8:20 AM43 °FFog.14 mph100%29.86 "Hg0 mi
7:50 AM43 °FFog.17 mph100%29.86 "Hg0 mi
7:20 AM43 °FFog.15 mph100%29.86 "Hg0 mi
6:50 AM43 °FFog.14 mph100%29.86 "Hg0 mi
6:20 AM43 °FFog.15 mph93%29.86 "Hg1 mi
5:50 AM41 °FFog.12 mph100%29.86 "Hg1 mi
5:20 AM41 °FFog.12 mph100%29.86 "Hg1 mi
4:50 AM41 °FFog.12 mph100%29.86 "Hg2 mi
4:20 AM41 °FFog.12 mph100%29.89 "Hg2 mi
3:50 AM41 °FFog.12 mph100%29.89 "Hg3 mi
3:20 AM41 °FFog.9 mph93%29.89 "Hg2 mi
2:50 AM41 °FQuite cool.9 mph100%29.89 "Hg6 mi
2:20 AM41 °FQuite cool.10 mph100%29.92 "HgN/A
1:50 AM41 °FQuite cool.10 mph100%29.92 "HgN/A
1:20 AM41 °FQuite cool.8 mph100%29.92 "HgN/A
12:50 AM41 °FQuite cool.6 mph93%29.92 "HgN/A
12:20 AM41 °FQuite cool.7 mph100%29.95 "HgN/A
11:50 PM
Sat, Oct 22
43 °FQuite cool.7 mph93%29.95 "HgN/A
11:20 PM43 °FQuite cool.7 mph93%29.95 "HgN/A
10:50 PM45 °FQuite cool.8 mph87%29.95 "HgN/A
10:20 PM45 °FQuite cool.8 mph87%29.95 "HgN/A
9:50 PM45 °FQuite cool.9 mph87%29.95 "HgN/A
9:20 PM45 °FQuite cool.9 mph93%29.95 "HgN/A
8:50 PM45 °FQuite cool.8 mph93%29.95 "HgN/A
8:20 PM46 °FCool.7 mph87%29.95 "HgN/A
7:50 PM46 °FCool.8 mph87%29.98 "HgN/A
7:20 PM46 °FPassing clouds.8 mph87%29.98 "HgN/A
Weather by CustomWeather, © 2016

See weather overviewHow to use our weather pages